Location: Dover
(39.1580°N, 75.5250°W)
Time: 11:25:59
(UTC-04:00)

ISS - All Passes

Search period start: 17 April 2014 00:00
Search period end: 27 April 2014 00:00
Orbit: 414 x 419 km, 51.6° (Epoch: 17 April)

Date Brightness Start Highest point End Pass type
(mag) Time Alt. Az. Time Alt. Az. Time Alt. Az.
17 Apr - 00:44:17 10° W 00:46:14 15° SW 00:48:10 10° SSW night (unlit)
17 Apr - 15:48:32 10° SSW 15:51:34 33° SE 15:54:37 10° ENE daylight
17 Apr - 17:25:21 10° W 17:28:20 29° NNW 17:31:19 10° NE daylight
17 Apr - 19:04:55 10° NNW 19:05:57 11° N 19:06:59 10° N daylight
17 Apr - 20:42:37 10° NNW 20:43:56 12° NNE 20:45:15 10° NE visible
17 Apr - 22:18:21 10° NW 22:21:28 34° NNE 22:24:35 10° E visible
17 Apr - 23:55:17 10° WNW 23:58:08 26° SW 00:00:57 10° S night (unlit)
18 Apr - 15:01:01 10° S 15:03:25 19° SE 15:05:50 10° E daylight
18 Apr - 16:36:42 10° WSW 16:39:56 45° NNW 16:43:11 10° NE daylight
18 Apr - 18:15:42 10° NW 18:17:21 13° NNW 18:19:01 10° NNE daylight
18 Apr - 19:54:40 10° N 19:55:19 10° N 19:55:58 10° NNE daylight
18 Apr - 21:30:14 10° NNW 21:33:02 24° NNE 21:35:49 10° E visible
18 Apr - 23:06:41 10° WNW 23:09:56 47° SW 23:13:09 10° SSE visible
19 Apr - 14:14:48 10° SE 14:15:17 10° SE 14:15:47 10° ESE daylight
19 Apr - 15:48:13 10° SW 15:51:34 79° NW 15:54:55 10° NE daylight
19 Apr - 17:26:34 10° WNW 17:28:46 16° NNW 17:30:58 10° NNE daylight
19 Apr - 20:42:08 10° NNW 20:44:30 18° NNE 20:46:51 10° ENE visible
19 Apr - 22:18:15 10° NW 22:21:37 87° SW 22:24:58 10° SE visible
20 Apr - 14:59:56 10° SW 15:03:13 56° SE 15:06:30 10° ENE daylight
20 Apr - 16:37:31 10° WNW 16:40:10 21° NNW 16:42:50 10° NNE daylight
20 Apr - 18:17:34 10° N 18:17:56 10° N 18:18:17 10° N daylight
20 Apr - 19:54:02 10° NNW 19:55:52 14° NNE 19:57:41 10° NE daylight
20 Apr - 21:29:55 10° NW 21:33:13 53° NE 21:36:30 10° ESE visible
20 Apr - 23:07:33 10° W 23:09:39 16° SW 23:11:45 10° SSW visible
21 Apr - 14:11:55 10° SSW 14:14:53 30° SE 14:17:52 10° ENE daylight
21 Apr - 15:48:36 10° W 15:51:36 30° NNW 15:54:37 10° NE daylight
21 Apr - 17:28:05 10° NNW 17:29:11 11° N 17:30:17 10° N daylight
21 Apr - 19:05:56 10° N 19:07:09 12° N 19:08:22 10° NNE daylight
21 Apr - 20:41:38 10° NW 20:44:43 32° NNE 20:47:47 10° E visible
21 Apr - 22:18:28 10° WNW 22:21:23 28° SW 22:24:17 10° SSE visible
22 Apr - 13:24:19 10° S 13:26:35 17° SE 13:28:51 10° E daylight
22 Apr - 14:59:48 10° WSW 15:03:03 48° NW 15:06:19 10° NE daylight
22 Apr - 16:38:43 10° NW 16:40:26 13° NNW 16:42:09 10° NNE daylight
22 Apr - 18:17:53 10° N 18:18:22 10° N 18:18:52 10° NNE daylight
22 Apr - 19:53:22 10° NNW 19:56:06 22° NNE 19:58:49 10° E daylight
22 Apr - 21:29:45 10° WNW 21:33:01 51° SW 21:36:16 10° SE visible
23 Apr - 14:11:12 10° SW 14:14:31 85° NW 14:17:53 10° NE daylight
23 Apr - 15:49:26 10° WNW 15:51:41 17° NNW 15:53:56 10° NNE daylight
23 Apr - 19:05:07 10° NNW 19:07:23 17° NNE 19:09:40 10° ENE daylight
23 Apr - 20:41:11 10° NW 20:44:32 86° NE 20:47:53 10° SE visible
24 Apr - 13:22:47 10° SW 13:26:01 51° SE 13:29:17 10° ENE daylight
24 Apr - 15:00:14 10° W 15:02:56 22° NNW 15:05:39 10° NNE daylight
24 Apr - 16:40:13 10° NNW 16:40:40 10° N 16:41:06 10° N daylight
24 Apr - 18:16:52 10° NNW 18:18:35 13° NNE 18:20:19 10° NE daylight
24 Apr - 19:52:42 10° NW 19:55:58 48° NE 19:59:13 10° ESE daylight
24 Apr - 21:30:10 10° W 21:32:25 17° SW 21:34:41 10° S visible
25 Apr - 12:34:40 10° SSW 12:37:33 28° SE 12:40:27 10° ENE daylight
25 Apr - 14:11:10 10° W 14:14:13 32° NNW 14:17:16 10° NE daylight
25 Apr - 15:50:34 10° NNW 15:51:45 11° N 15:52:56 10° N daylight
25 Apr - 17:28:37 10° N 17:29:43 11° N 17:30:49 10° NNE daylight
25 Apr - 19:04:15 10° NW 19:07:17 30° NNE 19:10:18 10° E daylight
25 Apr - 20:41:00 10° WNW 20:43:59 30° SW 20:46:57 10° SSE visible
26 Apr - 11:47:01 10° SSE 11:49:05 16° SE 11:51:10 10° E daylight
26 Apr - 13:22:15 10° WSW 13:25:30 52° NW 13:28:47 10° NE daylight
26 Apr - 15:01:03 10° NW 15:02:51 14° NNW 15:04:39 10° NNE daylight
26 Apr - 16:40:29 10° N 16:40:46 10° N 16:41:02 10° N daylight
26 Apr - 18:15:51 10° NNW 18:18:30 21° NNE 18:21:09 10° ENE daylight
26 Apr - 19:52:09 10° WNW 19:55:27 56° SW 19:58:43 10° SE daylight
